FLX719 SBBR-SBUL

Flight info

Callsign FLX719
Flight time 0h 39m
Altitude 36000
Route LUZ DCT EDMIN
Aircraft GLF6/M-SFGHIRWXY/S

Departure

Time 2026-05-06 23:25
Airport Presidente Juscelino Kubitschek International Airport (SBBR)

Arrival

Time 2026-05-07 00:05
Airport Ten. Cel. Aviador César Bombonato Airport (SBUL)
Time Latitude Longitude Altitude Speed Heading
2026-05-06 22:57 -15.86855 -47.92578 3490 ft 0 kts 175°
2026-05-06 23:16 -15.86859 -47.92593 3490 ft 5 kts 303°
2026-05-06 23:16 -15.86812 -47.92589 3488 ft 8 kts 12°
2026-05-06 23:17 -15.86787 -47.92536 3487 ft 8 kts 68°
2026-05-06 23:17 -15.86728 -47.92497 3485 ft 12 kts 27°
2026-05-06 23:17 -15.86637 -47.92445 3481 ft 17 kts 30°
2026-05-06 23:17 -15.86524 -47.92356 3477 ft 22 kts 66°
2026-05-06 23:18 -15.86511 -47.92189 3477 ft 23 kts 86°
2026-05-06 23:18 -15.86503 -47.92027 3477 ft 21 kts 88°
2026-05-06 23:18 -15.86492 -47.91882 3479 ft 18 kts 85°
2026-05-06 23:18 -15.86558 -47.91810 3481 ft 14 kts 180°
2026-05-06 23:19 -15.86611 -47.91755 3482 ft 11 kts 97°
2026-05-06 23:19 -15.86656 -47.91711 3482 ft 8 kts 179°
2026-05-06 23:19 -15.86705 -47.91711 3483 ft 5 kts 178°
2026-05-06 23:19 -15.86743 -47.91708 3484 ft 6 kts 174°
2026-05-06 23:20 -15.86821 -47.91702 3485 ft 16 kts 176°
2026-05-06 23:20 -15.86972 -47.91692 3486 ft 23 kts 175°
2026-05-06 23:20 -15.87129 -47.91681 3483 ft 22 kts 176°
2026-05-06 23:20 -15.87283 -47.91670 3480 ft 21 kts 177°
2026-05-06 23:21 -15.87435 -47.91659 3475 ft 22 kts 174°
2026-05-06 23:21 -15.87598 -47.91650 3466 ft 25 kts 178°
2026-05-06 23:21 -15.87732 -47.91668 3457 ft 13 kts 245°
2026-05-06 23:21 -15.87742 -47.91752 3460 ft 9 kts 266°
2026-05-06 23:22 -15.87746 -47.91815 3461 ft 8 kts 268°
2026-05-06 23:22 -15.87752 -47.91905 3462 ft 17 kts 266°
2026-05-06 23:22 -15.87764 -47.92072 3465 ft 25 kts 266°
2026-05-06 23:22 -15.87771 -47.92242 3471 ft 21 kts 266°
2026-05-06 23:23 -15.87784 -47.92394 3476 ft 22 kts 265°
2026-05-06 23:23 -15.87797 -47.92571 3481 ft 26 kts 266°
2026-05-06 23:23 -15.87807 -47.92770 3488 ft 26 kts 266°
2026-05-06 23:23 -15.87818 -47.92940 3496 ft 20 kts 266°
2026-05-06 23:24 -15.87826 -47.93069 3502 ft 17 kts 266°
2026-05-06 23:24 -15.87836 -47.93201 3507 ft 19 kts 266°
2026-05-06 23:24 -15.87852 -47.93348 3512 ft 19 kts 247°
2026-05-06 23:24 -15.87949 -47.93341 3510 ft 17 kts 116°
2026-05-06 23:25 -15.88001 -47.93207 3504 ft 24 kts 105°
2026-05-06 23:25 -15.87993 -47.92874 3486 ft 88 kts 86°
2026-05-06 23:25 -15.87930 -47.91934 3587 ft 162 kts 87°
2026-05-06 23:25 -15.87993 -47.90866 4697 ft 161 kts 110°
2026-05-06 23:26 -15.88849 -47.89914 5167 ft 209 kts 152°
2026-05-06 23:26 -15.90392 -47.89845 6074 ft 235 kts 192°
2026-05-06 23:26 -15.92020 -47.90329 6712 ft 270 kts 193°
2026-05-06 23:26 -15.93961 -47.90886 7400 ft 299 kts 190°
2026-05-06 23:27 -15.95996 -47.91134 8772 ft 297 kts 179°
2026-05-06 23:27 -15.98100 -47.91029 8984 ft 303 kts 170°
2026-05-06 23:27 -16.00223 -47.90696 9111 ft 316 kts 170°
2026-05-06 23:27 -16.02371 -47.90994 10740 ft 311 kts 192°
2026-05-06 23:28 -16.04594 -47.91548 11119 ft 351 kts 192°
2026-05-06 23:28 -16.07093 -47.92182 11781 ft 376 kts 192°
2026-05-06 23:28 -16.09590 -47.92825 13244 ft 373 kts 192°
2026-05-06 23:28 -16.12134 -47.93481 14378 ft 380 kts 192°
2026-05-06 23:29 -16.14721 -47.94150 15536 ft 384 kts 192°
2026-05-06 23:29 -16.17299 -47.94819 16645 ft 388 kts 192°
2026-05-06 23:29 -16.19948 -47.95505 17717 ft 393 kts 192°
2026-05-06 23:29 -16.22640 -47.96203 18916 ft 395 kts 192°
2026-05-06 23:30 -16.25271 -47.96906 20167 ft 395 kts 195°
2026-05-06 23:30 -16.27751 -47.98214 21322 ft 403 kts 210°
2026-05-06 23:30 -16.30094 -47.99812 22577 ft 405 kts 210°
2026-05-06 23:30 -16.32446 -48.01411 23753 ft 408 kts 210°
2026-05-06 23:31 -16.34855 -48.03050 24876 ft 412 kts 210°
2026-05-06 23:31 -16.37268 -48.04691 26013 ft 416 kts 210°
2026-05-06 23:31 -16.39690 -48.06339 27190 ft 417 kts 210°
2026-05-06 23:31 -16.42139 -48.08007 28181 ft 422 kts 210°
2026-05-06 23:32 -16.44617 -48.09694 29079 ft 427 kts 210°
2026-05-06 23:32 -16.47154 -48.11421 29961 ft 432 kts 211°
2026-05-06 23:32 -16.49705 -48.13159 30713 ft 440 kts 211°
2026-05-06 23:32 -16.52251 -48.14893 31643 ft 442 kts 211°
2026-05-06 23:33 -16.54818 -48.16645 32893 ft 436 kts 211°
2026-05-06 23:33 -16.57336 -48.18361 34018 ft 434 kts 212°
2026-05-06 23:33 -16.59851 -48.20076 35239 ft 428 kts 212°
2026-05-06 23:33 -16.62346 -48.21779 36207 ft 428 kts 213°
2026-05-06 23:34 -16.64878 -48.23508 36199 ft 447 kts 212°
2026-05-06 23:34 -16.67587 -48.25358 36205 ft 465 kts 212°
2026-05-06 23:34 -16.70342 -48.27241 36196 ft 479 kts 212°
2026-05-06 23:35 -16.74236 -48.29610 36158 ft 484 kts 201°
2026-05-06 23:35 -16.79770 -48.30807 36188 ft 487 kts 190°
2026-05-06 23:35 -16.83135 -48.31365 36193 ft 487 kts 190°
2026-05-06 23:36 -16.89852 -48.32474 36193 ft 484 kts 190°
2026-05-06 23:36 -16.96594 -48.33586 36187 ft 483 kts 190°
2026-05-06 23:37 -17.03285 -48.34690 36182 ft 484 kts 190°
2026-05-06 23:37 -17.09966 -48.35795 36182 ft 483 kts 190°
2026-05-06 23:38 -17.16659 -48.36901 36189 ft 482 kts 190°
2026-05-06 23:38 -17.23336 -48.38007 36182 ft 483 kts 190°
2026-05-06 23:38 -17.26670 -48.38558 36199 ft 468 kts 190°
2026-05-06 23:39 -17.29822 -48.39079 36201 ft 445 kts 190°
2026-05-06 23:39 -17.32830 -48.39578 36187 ft 423 kts 190°
2026-05-06 23:39 -17.35714 -48.40055 36174 ft 410 kts 191°
2026-05-06 23:40 -17.41363 -48.40993 36175 ft 414 kts 190°
2026-05-06 23:40 -17.47181 -48.41960 35782 ft 424 kts 190°
2026-05-06 23:40 -17.50110 -48.42446 35324 ft 423 kts 190°
2026-05-06 23:41 -17.53023 -48.42930 34867 ft 421 kts 190°
2026-05-06 23:41 -17.55928 -48.43413 34394 ft 419 kts 189°
2026-05-06 23:41 -17.58819 -48.43893 33928 ft 421 kts 189°
2026-05-06 23:41 -17.61704 -48.44373 33469 ft 423 kts 189°
2026-05-06 23:42 -17.64653 -48.44864 32994 ft 425 kts 189°
2026-05-06 23:42 -17.67626 -48.45356 32528 ft 425 kts 189°
2026-05-06 23:42 -17.70570 -48.45847 32053 ft 427 kts 189°
2026-05-06 23:42 -17.73498 -48.46334 31581 ft 429 kts 189°
2026-05-06 23:43 -17.76453 -48.46826 31109 ft 430 kts 189°
2026-05-06 23:43 -17.79502 -48.47334 30618 ft 454 kts 189°
2026-05-06 23:43 -17.82729 -48.47871 30101 ft 469 kts 189°
2026-05-06 23:43 -17.85929 -48.48405 29580 ft 465 kts 188°
2026-05-06 23:44 -17.89124 -48.48938 29058 ft 455 kts 189°
2026-05-06 23:44 -17.92266 -48.49462 28552 ft 451 kts 188°
2026-05-06 23:44 -17.95382 -48.49981 28052 ft 449 kts 188°
2026-05-06 23:44 -17.98499 -48.50502 27556 ft 446 kts 188°
2026-05-06 23:45 -18.01560 -48.51013 27061 ft 446 kts 188°
2026-05-06 23:45 -18.04653 -48.51530 26565 ft 443 kts 188°
2026-05-06 23:45 -18.07709 -48.52040 26075 ft 441 kts 188°
2026-05-06 23:45 -18.10734 -48.52546 25588 ft 439 kts 188°
2026-05-06 23:46 -18.13762 -48.53052 25107 ft 437 kts 188°
2026-05-06 23:46 -18.16754 -48.53553 24625 ft 435 kts 188°
2026-05-06 23:46 -18.19744 -48.54053 24144 ft 434 kts 187°
2026-05-06 23:46 -18.22734 -48.54554 23660 ft 431 kts 188°
2026-05-06 23:47 -18.25734 -48.55056 23178 ft 430 kts 187°
2026-05-06 23:47 -18.28709 -48.55555 22701 ft 427 kts 187°
2026-05-06 23:47 -18.31657 -48.56048 22231 ft 427 kts 187°
2026-05-06 23:47 -18.34576 -48.56538 21770 ft 425 kts 187°
2026-05-06 23:48 -18.37513 -48.57029 21302 ft 425 kts 187°
2026-05-06 23:48 -18.40455 -48.57523 20829 ft 424 kts 187°
2026-05-06 23:48 -18.43407 -48.58018 20357 ft 424 kts 187°
2026-05-06 23:48 -18.46322 -48.58507 19898 ft 422 kts 187°
2026-05-06 23:49 -18.49235 -48.58996 19434 ft 421 kts 187°
2026-05-06 23:49 -18.52134 -48.59483 18972 ft 420 kts 188°
2026-05-06 23:49 -18.55038 -48.59971 18499 ft 421 kts 188°
2026-05-06 23:49 -18.57942 -48.60460 18029 ft 419 kts 188°
2026-05-06 23:50 -18.60829 -48.60838 17547 ft 417 kts 179°
2026-05-06 23:50 -18.66013 -48.58559 16698 ft 410 kts 135°
2026-05-06 23:50 -18.67639 -48.56100 15792 ft 408 kts 112°
2026-05-06 23:51 -18.68252 -48.53237 15199 ft 396 kts 96°
2026-05-06 23:51 -18.68550 -48.50369 14727 ft 393 kts 95°
2026-05-06 23:51 -18.69011 -48.47557 14251 ft 388 kts 108°
2026-05-06 23:51 -18.70216 -48.45058 13798 ft 375 kts 118°
2026-05-06 23:52 -18.71506 -48.42692 13334 ft 363 kts 118°
2026-05-06 23:52 -18.72765 -48.40398 12870 ft 354 kts 118°
2026-05-06 23:52 -18.73990 -48.38179 12406 ft 345 kts 118°
2026-05-06 23:52 -18.75194 -48.36011 11935 ft 338 kts 118°
2026-05-06 23:53 -18.76377 -48.33898 11476 ft 332 kts 118°
2026-05-06 23:53 -18.77549 -48.31816 11009 ft 326 kts 118°
2026-05-06 23:53 -18.78709 -48.29767 10544 ft 322 kts 118°
2026-05-06 23:53 -18.79856 -48.27746 10083 ft 318 kts 118°
2026-05-06 23:54 -18.80963 -48.25806 9556 ft 299 kts 118°
2026-05-06 23:54 -18.82005 -48.23997 9098 ft 282 kts 118°
2026-05-06 23:54 -18.83020 -48.22249 8676 ft 275 kts 118°
2026-05-06 23:54 -18.84032 -48.20504 8214 ft 278 kts 118°
2026-05-06 23:55 -18.85045 -48.18759 7762 ft 279 kts 118°
2026-05-06 23:55 -18.85871 -48.16928 7300 ft 275 kts 98°
2026-05-06 23:55 -18.85683 -48.14981 6985 ft 266 kts 67°
2026-05-06 23:55 -18.84819 -48.13286 6690 ft 261 kts 59°
2026-05-06 23:56 -18.83902 -48.11646 6373 ft 258 kts 59°
2026-05-06 23:56 -18.82978 -48.10001 6066 ft 254 kts 59°
2026-05-06 23:56 -18.82083 -48.08416 5997 ft 249 kts 59°
2026-05-06 23:56 -18.81198 -48.06846 6001 ft 251 kts 59°
2026-05-06 23:57 -18.80236 -48.05285 5997 ft 252 kts 51°
2026-05-06 23:57 -18.79540 -48.04263 6012 ft 259 kts 62°
2026-05-06 23:57 -18.78521 -48.01984 6006 ft 246 kts 65°
2026-05-06 23:57 -18.77819 -48.00375 6003 ft 231 kts 65°
2026-05-06 23:58 -18.76875 -47.99055 6008 ft 230 kts 34°
2026-05-06 23:58 -18.75339 -47.98666 6026 ft 229 kts 356°
2026-05-06 23:58 -18.73821 -47.99115 6010 ft 226 kts 334°
2026-05-06 23:58 -18.72761 -48.00381 6026 ft 232 kts 292°
2026-05-06 23:59 -18.72477 -48.02011 6016 ft 224 kts 277°
2026-05-06 23:59 -18.72350 -48.03646 6064 ft 222 kts 276°
2026-05-06 23:59 -18.72266 -48.05283 6007 ft 223 kts 274°
2026-05-06 23:59 -18.72209 -48.06933 6003 ft 224 kts 273°
2026-05-07 00:00 -18.72168 -48.08581 5998 ft 224 kts 273°
2026-05-07 00:00 -18.72138 -48.10244 5995 ft 224 kts 272°
2026-05-07 00:00 -18.72113 -48.11888 5998 ft 224 kts 272°
2026-05-07 00:00 -18.72092 -48.13536 5994 ft 224 kts 272°
2026-05-07 00:01 -18.72447 -48.15029 6002 ft 202 kts 236°
2026-05-07 00:01 -18.73504 -48.15913 5763 ft 192 kts 203°
2026-05-07 00:01 -18.74719 -48.16483 5563 ft 183 kts 200°
2026-05-07 00:01 -18.75912 -48.17023 5476 ft 185 kts 200°
2026-05-07 00:02 -18.77093 -48.17548 5272 ft 184 kts 200°
2026-05-07 00:02 -18.78271 -48.18068 5037 ft 182 kts 200°
2026-05-07 00:02 -18.79447 -48.18584 4796 ft 180 kts 200°
2026-05-07 00:02 -18.80593 -48.19097 4558 ft 178 kts 201°
2026-05-07 00:03 -18.81713 -48.19603 4324 ft 165 kts 201°
2026-05-07 00:03 -18.82697 -48.20049 4085 ft 141 kts 201°
2026-05-07 00:03 -18.83566 -48.20439 3915 ft 133 kts 201°
2026-05-07 00:03 -18.84430 -48.20828 3762 ft 133 kts 201°
2026-05-07 00:04 -18.85283 -48.21211 3562 ft 132 kts 201°
2026-05-07 00:04 -18.86134 -48.21596 3360 ft 132 kts 201°
2026-05-07 00:04 -18.86980 -48.21978 3183 ft 134 kts 201°
2026-05-07 00:04 -18.87831 -48.22363 3082 ft 122 kts 201°
2026-05-07 00:05 -18.88473 -48.22641 3079 ft 66 kts 202°
2026-05-07 00:05 -18.88744 -48.22762 3078 ft 21 kts 212°
2026-05-07 00:05 -18.88785 -48.22844 3077 ft 10 kts 249°
2026-05-07 00:05 -18.88818 -48.22916 3076 ft 10 kts 228°
2026-05-07 00:06 -18.88879 -48.22945 3076 ft 9 kts 202°
2026-05-07 00:06 -18.88907 -48.22990 3075 ft 3 kts 246°
2026-05-07 00:06 -18.88912 -48.23003 3075 ft 0 kts 247°